• în România
  • Lista ţărilor
  • Pe 7 zile
  • Temperatura apei
  • Hartă satelitară
  • Meteo pe hartă
  • Widget-uri
  • user-avatar
    Intrare

    Meteo pe oră la Melbourne

    Astăzi, 17 Iulie, Marţi

    Timp Temperatura Precipitaţii Vânt Presiune Umiditate
    00:00 +9°C° 0 mm 5 m/s 755 mmHg 70%
    01:00 +9°C° 0 mm 5 m/s 755 mmHg 71%
    02:00 +9°C° 0 mm 5 m/s 755 mmHg 71%
    03:00 +9°C° 0 mm 6 m/s 754 mmHg 71%
    04:00 +9°C° 0 mm 8 m/s 754 mmHg 68%
    05:00 +9°C° 0 mm 8 m/s 754 mmHg 68%
    06:00 +9°C° 0 mm 7 m/s 754 mmHg 69%
    07:00 +8°C° 0 mm 7 m/s 753 mmHg 69%
    08:00 +9°C° 0 mm 8 m/s 753 mmHg 66%
    09:00 +10°C° 0 mm 8 m/s 753 mmHg 63%
    10:00 +11°C° 0 mm 11 m/s 752 mmHg 59%
    11:00 +12°C° 0 mm 10 m/s 751 mmHg 55%
    12:00 +14°C° 0 mm 10 m/s 750 mmHg 52%
    13:00 +16°C° 0 mm 10 m/s 749 mmHg 48%
    14:00 +15°C° 0,2 mm 9 m/s 749 mmHg 55%
    15:00 +13°C° 0,2 mm 9 m/s 749 mmHg 63%
    16:00 +12°C° 0 mm 11 m/s 749 mmHg 73%
    17:00 +11°C° 0,4 mm 9 m/s 750 mmHg 77%
    18:00 +10°C° 0,4 mm 8 m/s 752 mmHg 80%
    19:00 +8°C° 0,4 mm 7 m/s 753 mmHg 83%
    20:00 +8°C° 0 mm 6 m/s 754 mmHg 82%
    21:00 +7°C° 0 mm 6 m/s 755 mmHg 81%
    22:00 +7°C° 0 mm 5 m/s 756 mmHg 81%
    23:00 +6°C° 0 mm 5 m/s 756 mmHg 80%

    Mâine, 18 Iulie, Miercuri

    Timp Temperatura Precipitaţii Vânt Presiune Umiditate
    00:00 +6°C° 0 mm 4 m/s 757 mmHg 80%
    01:00 +6°C° 0 mm 4 m/s 758 mmHg 80%
    02:00 +6°C° 0 mm 4 m/s 758 mmHg 81%
    03:00 +5°C° 0 mm 4 m/s 758 mmHg 81%
    04:00 +5°C° 0 mm 4 m/s 759 mmHg 82%
    05:00 +5°C° 0 mm 4 m/s 759 mmHg 83%
    06:00 +5°C° 0 mm 5 m/s 759 mmHg 83%
    07:00 +5°C° 0 mm 5 m/s 759 mmHg 83%
    08:00 +7°C° 0 mm 5 m/s 759 mmHg 79%
    09:00 +8°C° 0 mm 6 m/s 759 mmHg 75%
    10:00 +9°C° 0 mm 6 m/s 760 mmHg 71%
    11:00 +10°C° 0 mm 6 m/s 759 mmHg 66%
    12:00 +12°C° 0 mm 7 m/s 759 mmHg 62%
    13:00 +14°C° 0 mm 7 m/s 758 mmHg 57%
    14:00 +14°C° 0 mm 7 m/s 758 mmHg 58%
    15:00 +14°C° 0 mm 6 m/s 758 mmHg 59%
    16:00 +14°C° 0 mm 6 m/s 757 mmHg 60%
    17:00 +13°C° 0 mm 6 m/s 757 mmHg 61%
    18:00 +11°C° 0 mm 6 m/s 757 mmHg 63%
    19:00 +11°C° 0 mm 6 m/s 758 mmHg 64%
    20:00 +11°C° 0 mm 6 m/s 758 mmHg 62%
    21:00 +11°C° 0 mm 6 m/s 757 mmHg 61%
    22:00 +11°C° 0 mm 6 m/s 757 mmHg 60%
    23:00 +11°C° 0 mm 6 m/s 757 mmHg 60%

    Poimâine, 19 Iulie, Joi

    Timp Temperatura Precipitaţii Vânt Presiune Umiditate
    00:00 +11°C° 0 mm 6 m/s 757 mmHg 60%
    01:00 +10°C° 0 mm 6 m/s 756 mmHg 61%
    02:00 +10°C° 0 mm 7 m/s 755 mmHg 60%
    03:00 +10°C° 0 mm 7 m/s 755 mmHg 59%
    04:00 +10°C° 0 mm 7 m/s 754 mmHg 59%
    05:00 +10°C° 0 mm 7 m/s 754 mmHg 59%
    06:00 +10°C° 0 mm 7 m/s 754 mmHg 59%
    07:00 +9°C° 0 mm 7 m/s 753 mmHg 59%
    08:00 +10°C° 0 mm 7 m/s 754 mmHg 58%
    09:00 +11°C° 0 mm 7 m/s 754 mmHg 58%
    10:00 +12°C° 0 mm 7 m/s 754 mmHg 57%
    11:00 +13°C° 0 mm 6 m/s 753 mmHg 59%
    12:00 +13°C° 0 mm 6 m/s 753 mmHg 61%
    13:00 +13°C° 0 mm 5 m/s 753 mmHg 62%
    14:00 +13°C° 0,8 mm 5 m/s 752 mmHg 68%
    15:00 +12°C° 0,8 mm 4 m/s 752 mmHg 73%
    16:00 +12°C° 0,8 mm 4 m/s 751 mmHg 78%
    17:00 +11°C° 1,7 mm 4 m/s 751 mmHg 82%
    18:00 +9°C° 1,7 mm 3 m/s 751 mmHg 87%
    19:00 +8°C° 1,7 mm 3 m/s 752 mmHg 91%
    20:00 +8°C° 0,5 mm 3 m/s 752 mmHg 91%
    21:00 +8°C° 0,5 mm 3 m/s 752 mmHg 90%
    22:00 +7°C° 0,5 mm 3 m/s 752 mmHg 90%
    23:00 +7°C° 0,1 mm 3 m/s 752 mmHg 90%

    20 Iulie, Vineri

    Timp Temperatura Precipitaţii Vânt Presiune Umiditate
    00:00 +6°C° 0,1 mm 4 m/s 752 mmHg 90%
    01:00 +6°C° 0,1 mm 4 m/s 752 mmHg 90%
    02:00 +5°C° 0 mm 4 m/s 752 mmHg 90%
    03:00 +5°C° 0 mm 4 m/s 752 mmHg 90%
    04:00 +5°C° 0 mm 5 m/s 753 mmHg 90%
    05:00 +5°C° 0 mm 5 m/s 753 mmHg 88%
    06:00 +5°C° 0 mm 5 m/s 754 mmHg 87%
    07:00 +3°C° 0 mm 5 m/s 754 mmHg 86%
    08:00 +6°C° 0 mm 5 m/s 755 mmHg 81%
    09:00 +7°C° 0 mm 6 m/s 755 mmHg 76%
    10:00 +8°C° 0 mm 6 m/s 756 mmHg 71%
    11:00 +8°C° 0,1 mm 7 m/s 756 mmHg 70%
    12:00 +9°C° 0,1 mm 7 m/s 756 mmHg 70%
    13:00 +9°C° 0,1 mm 7 m/s 756 mmHg 69%
    14:00 +9°C° 0,3 mm 7 m/s 756 mmHg 72%
    15:00 +9°C° 0,3 mm 6 m/s 756 mmHg 75%
    16:00 +9°C° 0,3 mm 6 m/s 757 mmHg 78%
    17:00 +8°C° 0,1 mm 5 m/s 758 mmHg 80%
    18:00 +7°C° 0,1 mm 5 m/s 758 mmHg 82%
    19:00 +7°C° 0,1 mm 4 m/s 759 mmHg 84%
    20:00 +6°C° 0 mm 4 m/s 760 mmHg 86%
    21:00 +6°C° 0 mm 4 m/s 761 mmHg 87%
    22:00 +6°C° 0 mm 4 m/s 761 mmHg 88%
    23:00 +5°C° 0 mm 4 m/s 762 mmHg 89%

    21 Iulie, Sâmbătă

    Timp Temperatura Precipitaţii Vânt Presiune Umiditate
    00:00 +5°C° 0 mm 4 m/s 762 mmHg 90%
    01:00 +5°C° 0 mm 3 m/s 762 mmHg 91%
    02:00 +5°C° 0 mm 3 m/s 762 mmHg 91%
    03:00 +5°C° 0 mm 4 m/s 762 mmHg 90%
    04:00 +5°C° 0 mm 4 m/s 762 mmHg 90%
    05:00 +4°C° 0 mm 4 m/s 763 mmHg 89%
    06:00 +4°C° 0 mm 3 m/s 763 mmHg 89%
    07:00 +4°C° 0 mm 3 m/s 763 mmHg 88%
    08:00 +5°C° 0 mm 4 m/s 764 mmHg 84%
    09:00 +6°C° 0 mm 4 m/s 764 mmHg 80%
    10:00 +7°C° 0 mm 4 m/s 764 mmHg 76%
    11:00 +10°C° 0 mm 4 m/s 764 mmHg 71%
    12:00 +11°C° 0 mm 4 m/s 763 mmHg 67%
    13:00 +12°C° 0 mm 5 m/s 763 mmHg 63%
    14:00 +12°C° 0,1 mm 4 m/s 763 mmHg 66%
    15:00 +11°C° 0,1 mm 4 m/s 763 mmHg 69%
    16:00 +11°C° 0,1 mm 4 m/s 763 mmHg 71%
    17:00 +10°C° 0 mm 4 m/s 763 mmHg 74%
    18:00 +8°C° 0 mm 4 m/s 763 mmHg 77%
    19:00 +8°C° 0 mm 3 m/s 763 mmHg 80%
    20:00 +7°C° 0 mm 4 m/s 763 mmHg 79%
    21:00 +7°C° 0 mm 4 m/s 763 mmHg 78%
    22:00 +7°C° 0 mm 4 m/s 763 mmHg 76%
    23:00 +7°C° 0 mm 4 m/s 763 mmHg 77%

    22 Iulie, Duminică

    Timp Temperatura Precipitaţii Vânt Presiune Umiditate
    00:00 +7°C° 0 mm 4 m/s 763 mmHg 77%
    01:00 +6°C° 0 mm 5 m/s 763 mmHg 77%
    02:00 +6°C° 0 mm 5 m/s 763 mmHg 77%
    03:00 +6°C° 0 mm 5 m/s 763 mmHg 77%
    04:00 +6°C° 0 mm 5 m/s 762 mmHg 77%
    05:00 +6°C° 0 mm 5 m/s 762 mmHg 76%
    06:00 +6°C° 0 mm 5 m/s 763 mmHg 76%
    07:00 +5°C° 0 mm 6 m/s 763 mmHg 75%
    08:00 +7°C° 0 mm 6 m/s 762 mmHg 71%
    09:00 +8°C° 0 mm 6 m/s 762 mmHg 67%
    10:00 +9°C° 0 mm 7 m/s 762 mmHg 63%
    11:00 +10°C° 0 mm 7 m/s 761 mmHg 60%
    12:00 +11°C° 0 mm 7 m/s 761 mmHg 57%
    13:00 +12°C° 0 mm 7 m/s 760 mmHg 53%
    14:00 +12°C° 0 mm 7 m/s 760 mmHg 54%
    15:00 +12°C° 0 mm 7 m/s 759 mmHg 55%
    16:00 +13°C° 0 mm 6 m/s 759 mmHg 56%
    17:00 +13°C° 0 mm 6 m/s 759 mmHg 57%
    18:00 +11°C° 0 mm 7 m/s 759 mmHg 57%
    19:00 +11°C° 0 mm 7 m/s 759 mmHg 57%
    20:00 +11°C° 0 mm 7 m/s 759 mmHg 55%
    21:00 +11°C° 0 mm 7 m/s 759 mmHg 53%
    22:00 +11°C° 0 mm 8 m/s 759 mmHg 52%
    23:00 +11°C° 0 mm 8 m/s 759 mmHg 51%
    Arată mai mult